Regional Weather Roundup
Issued by NWS Tiyan, Guam

Home | Current Version | Previous Version | Text Only | Print | Product List | Glossary On
Versions: 1 2 3 4 5 6 7 8 9 10 11 12 13 14 15 16 17 18 19 20 21 22 23 24 25 26 27 28
000
ASGM40 PGUM 170512
RWRGUM
WEATHER ROUNDUP FOR THE MARIANAS
NATIONAL WEATHER SERVICE TIYAN GU
300 PM CHST TUE JAN 17 2017

GUZ001>004-170600-
MARIANA ISLANDS-

CITY           SKY/WX    TMP DP  RH WIND       PRES   REMARKS
GUAM AIRPORT   MOSUNNY   84  75  74 SE9       29.88F HX  92
ANDERSEN AFB   MOSUNNY   82  75  78 SE9       29.89F
ROTA AIRPORT   PTSUNNY   77  73  88 VRB3      29.89F
TINIAN AP      CLOUDY    79  75  89 NE16      29.88F
SAIPAN AP      LGT RAIN  77  75  94 NE13      29.89F FOG

$$





USA.gov is the U.S. government's official web portal to all federal, state and local government web resources and services.